Location: Piotrkow Trybunalski
(51.4000°N, 19.6830°E)
Time: 04:56:59
(UTC+02:00)

A-11 Canister half - Pass Details

Date: 02 February 2023
Orbit: 1526 x 1682 km, 47.3° (Epoch: 25 March)

Event Time Altitude Azimuth Distance (km) Brightness Sun altitude
Rises 06:14:06 0° 228° (SW) 4,668 11.2 -10.2°
Reaches altitude 10° 06:17:14 10° 224° (SW) 3,688 10.7 -9.7°
Maximum altitude 06:26:01 49° 153° (SSE) 1,901 9.9 -8.4°
Drops below altitude 10° 06:34:57 10° 82° (E) 3,756 12.2 -7.1°
Sets 06:38:10 0° 77° (ENE) 4,761 12.7 -6.6°
